Regional Weather Roundup
Issued by NWS Burlington, VT

Current Version | Previous Version | Text Only | Print | Product List | Glossary Off
Versions: 1 2 3 4 5 6 7 8 9 10 11 12 13 14 15 16 17 18 19 20 21 22 23 24 25 26 27 28 29 30 31 32 33 34 35 36 37 38 39 40 41 42 43 44 45 46 47 48 49 50

000
ASUS41 KBTV 271710
RWRBTV
VERMONT REGIONAL WEATHER ROUNDUP
NATIONAL WEATHER SERVICE BURLINGTON VT
100 PM EDT TUE SEP 27 2016

NOTE: "FAIR" INDICATES FEW OR NO CLOUDS BELOW 12,000 FEET WITH NO
SIGNIFICANT WEATHER AND/OR OBSTRUCTIONS TO VISIBILITY.

* THESE REPORTS ARE NOT UNDER NWS QUALITY CONTROL AND/OR DO NOT
  REPORT WEATHER SUCH AS PRECIPITATION AND FOG.

VTZ001>019-271800-
_____VERMONT_____


CITY           SKY/WX    TMP DP  RH WIND       PRES   REMARKS
BURLINGTON     FAIR      70  49  47 S8        29.86F
MONTPELIER     PTSUNNY   66  46  48 VRB3      29.93F
MORRISVILLE    PTSUNNY   69  46  43 VRB7      29.89F
ST. JOHNSBURY*   N/A     66  50  56 MISG      29.87F
LYNDONVILLE*   FAIR      64  48  56 CALM      29.91F
MIDDLEBURY*    FAIR      69  47  46 CALM      29.89S
RUTLAND*       PTSUNNY   65  50  58 CALM      29.90F
SPRINGFIELD    FAIR      67  50  54 VRB3      29.90F
HIGHGATE*      CLOUDY    68  53  59 S3        29.86F
NEWPORT*       FAIR      65  44  47 CALM      29.89F
BENNINGTON     FAIR      66  51  58 CALM      29.91F
SUTTON*          N/A     63 N/A N/A MISG        N/A

_____LAKE CHAMPLAIN_____


CITY           SKY/WX    TMP DP  RH WIND       PRES   REMARKS
BURTON ISLAND*   N/A     66  57  72 SW9         N/A
COLCHESTER RF*   N/A     64  59  82 S17         N/A
DIAMOND ISL*     N/A     66  52  59 SE9         N/A

$$

NYZ007-026>031-035-052-083-087-271800-
_____NORTHERN NEW YORK_____


CITY           SKY/WX    TMP DP  RH WIND       PRES   REMARKS
PLATTSBURGH    FAIR      68  56  65 SE13      29.85F
SARANAC LAKE   CLOUDY    62  44  51 CALM      29.87F
MASSENA        PTSUNNY   66  46  48 SW10      29.85F
OGDENSBURG*    PTSUNNY   68  57  68 SW9       29.83F
POTSDAM*       MOSUNNY   70  48  46 W12G17    29.86S
WATERTOWN      PTSUNNY   69  48  47 SW13G20   29.84F
FT DRUM        FAIR      67  48  51 SW9       29.85F
ALBANY         FAIR      69  50  50 CALM      29.91F
GLENS FALLS    FAIR      66  56  70 S5        29.90F

$$
NHZ002-005-011-271800-
_____NEW HAMPSHIRE_____


CITY           SKY/WX    TMP DP  RH WIND       PRES   REMARKS
LEBANON        FAIR      67  54  63 CALM      29.90F
KEENE          FAIR      66  57  72 S3        29.91F
MT WASHINGTON  MOSUNNY   39  28  65 NW18        N/A  WCI  30
PLYMOUTH       FAIR      66  54  65 CALM      29.89F
WHITEFIELD     FAIR      65  50  58 CALM      29.90F

$$

_____REGIONAL QUEBEC LOCATIONS_____


CITY           SKY/WX    TMP DP  RH WIND       PRES   REMARKS
MONTREAL       PTSUNNY   66  46  48 W10       29.84S
QUEBEC CITY    CLOUDY    54  50  87 E10       29.90S
SHERBROOKE     PTSUNNY   66  52  59 VRB8      29.87F

_____REGIONAL ONTARIO LOCATIONS_____


CITY           SKY/WX    TMP DP  RH WIND       PRES   REMARKS
OTTAWA         MOSUNNY   68  45  42 SW12G17   29.82F

______KEY______
VSB  - VISIBILITY IN MILES
WCI  - WIND CHILL INDEX
HX   - HEAT INDEX
$$
NNNN




USA.gov is the U.S. government's official web portal to all federal, state and local government web resources and services.